Regional Weather Roundup
Issued by NWS

Home | Current Version | Previous Version | Text Only | Print | Product List | Glossary Off
Versions: 1 2 3 4 5 6 7 8 9 10 11 12 13 14 15 16 17 18 19 20 21 22 23 24 25 26 27 28 29 30 31 32 33 34 35 36 37 38 39 40 41 42 43 44 45 46 47 48 49 50

000
ASUS43 KIND 250059
RWRIN

WEATHER ROUNDUP FOR INDIANA
NATIONAL WEATHER SERVICE INDIANAPOLIS IN
900 PM EDT WED MAY 24 2017

NOTE: "FAIR" INDICATES FEW OR NO CLOUDS BELOW 12,000 FEET WITH NO
SIGNIFICANT WEATHER AND/OR OBSTRUCTIONS TO VISIBILITY.

* - STATION DOES NOT REPORT WEATHER SUCH AS PRECIPITATION OR FOG.

+ - STATION NOT QUALITY CONTROLLED BY THE NATIONAL WEATHER SERVICE.
    USE DATA WITH CAUTION...ESPECIALLY DEWPOINT AND RELATIVE
    HUMIDITY OBSERVATIONS.

INZ001>003-010>013-019-020-250200-
NORTHWEST INDIANA

CITY           SKY/WX    TMP DP  RH WIND       PRES   REMARKS
GARY /AIRPORT/ LGT RAIN  50  48  93 NW12      29.55S
MICHIGAN CITY+ DRIZZLE   50  50 100 CALM      29.53F
MONTICELLO +   DRIZZLE   57  56  95 N12       29.47S
RENSSELAER +   LGT RAIN  54  52  94 NW12      29.51F

$$

LMZ046-743>745-250200-
SOUTHERN LAKE MICHIGAN

STATION/POSITION TIME  TEMP    WIND        PRES    WAVE
                       AIR SEA DIR/SP/G            HT
                 (UTC) (F)     (DEG/KT/KT) (MB)    (FT)
BURNS HARBOR     0040   49     320/  8/ 10 1000.7S
MICHIGAN CITY    0030   50     260/  4/  4   N/A
5NW MICH CITY    0050   50 53  320/  6/  8   N/A     4

$$

INZ004-005-014>016-021>024-250200-
NORTH CENTRAL INDIANA

CITY           SKY/WX    TMP DP  RH WIND       PRES   REMARKS
ELKHART        LGT RAIN  59  57  94 NE6       29.51S
GOSHEN         LGT RAIN  59  56  89 N9        29.49S
PERU/GRISSOM   CLOUDY    59  59 100 N10       29.44F
SOUTH BEND     CLOUDY    58  57  97 NE7       29.51F

$$

INZ006>009-017-018-025>027-250200-
NORTHEAST INDIANA

CITY           SKY/WX    TMP DP  RH WIND       PRES   REMARKS
ANGOLA *+      CLOUDY    57  46  67 NE6       29.48F
FORT WAYNE     RAIN      59  57  93 N13       29.43F FOG
KENDALLVILLE + RAIN      58  58 100 N7        29.48F

$$

INZ028-029-035-036-043>045-051>053-250200-
WEST CENTRAL INDIANA

CITY           SKY/WX    TMP DP  RH WIND       PRES   REMARKS
CRAWFORDSVL +  LGT RAIN  57  56  97 N14       29.47S
GREENCASTLE +  CLOUDY    59  52  77 N8        29.46S
LAFAYETTE      CLOUDY    58  56  93 N10       29.47S
TERRE HAUTE    LGT RAIN  60  56  86 N8        29.47R FOG

$$

INZ030>032-037>040-046>048-054>057-064-065-250200-
CENTRAL INDIANA

CITY           SKY/WX    TMP DP  RH WIND       PRES   REMARKS
COLUMBUS       CLOUDY    59  57  94 NW9       29.41S
INDIANAPOLIS   CLOUDY    59  55  87 N13       29.43F
-EAGLE CREEK   CLOUDY    60  56  86 N10       29.43S
KOKOMO +       CLOUDY    59  57  93 N13       29.45F
SHELBYVILLE    CLOUDY    61  56  83 N12       29.40S

$$

INZ033-034-041-042-049-050-058-059-250200-
EAST CENTRAL INDIANA

CITY           SKY/WX    TMP DP  RH WIND       PRES   REMARKS
MUNCIE         LGT RAIN  60  55  83 N13       29.41F
RICHMOND +     RAIN      55  55 100 N10G16    29.39S

$$

INZ060-061-067>069-081>083-085>088-250200-
SOUTHWEST INDIANA

CITY           SKY/WX    TMP DP  RH WIND       PRES   REMARKS
EVANSVILLE     CLOUDY    59  54  83 W7        29.51S
HUNTINGBURG *+ LGT RAIN  57  56  96 W10       29.48S

$$

INZ062-063-066-070>080-084-089>092-250200-
SOUTH CENTRAL AND SOUTHEAST INDIANA

CITY           SKY/WX    TMP DP  RH WIND       PRES   REMARKS
BLOOMINGTON    CLOUDY    59  55  87 NW6       29.44S
MADISON *+     CLOUDY    59  55  88 W6        29.41S
SEYMOUR +      HVY RAIN  59  59 100 NW9       29.41S

$$





USA.gov is the U.S. government's official web portal to all federal, state and local government web resources and services.